Regional Weather Roundup
Issued by NWS

Home | Current Version | Previous Version | Text Only | Print | Product List | Glossary Off
Versions: 1 2 3 4 5 6 7 8 9 10 11 12 13 14 15 16 17 18 19 20 21 22 23 24 25 26 27 28 29 30 31 32 33 34 35 36 37 38 39 40 41 42 43 44 45 46 47 48 49 50

000
ASUS43 KMKX 010810
RWRWI

WISCONSIN REGIONAL WEATHER ROUNDUP
NATIONAL WEATHER SERVICE MILWAUKEE/SULLIVAN WI
200 AM CST SUN MAR 01 2015

NOTE: "FAIR" INDICATES FEW OR NO CLOUDS BELOW 12,000 FEET WITH NO
SIGNIFICANT WEATHER AND/OR OBSTRUCTIONS TO VISIBILITY.

WIZ001-002-006>008-014>016-023>028-010900-
NORTHWEST WISCONSIN

CITY           SKY/WX    TMP DP  RH WIND       PRES   REMARKS
SUPERIOR ARPT  FLURRIES  13   8  77 CALM      30.23F
ASHLAND        CLOUDY    14   4  64 SW10      30.25F WCI   1
HAYWARD        LGT SNOW  12   4  70 S9        30.24F WCI   0
SIREN          MOCLDY    14   8  76 S8        30.25S WCI   2
CUMBERLAND     FLURRIES  12   7  79 S8        30.25F WCI   1
RICE LAKE      FLURRIES  12   6  77 S8        30.29F WCI   0
CHETEK         CLOUDY    12   5  74 S6        30.29F WCI   2
LADYSMITH      CLOUDY    11   2  67 S5        30.29F WCI   3
EAU CLAIRE     CLOUDY    13   3  64 S9        30.31F WCI   1
MENOMONIE      CLOUDY    14   7  73 S7        30.32S WCI   4
NEW RICHMOND   CLOUDY    12   7  79 S9        30.27F WCI   0
OSCEOLA        CLOUDY    13   8  79 S8        30.30F WCI   2
$$

WIZ003>005-009-010-017-018-010900-
NORTH CENTRAL WISCONSIN

CITY           SKY/WX    TMP DP  RH WIND       PRES   REMARKS
MANITOWISH WTR CLOUDY    10  -1  61 SW7       30.22S WCI  -2
ARBOR VITAE    CLOUDY    11   0  59 SW8       30.22F WCI   0
WOODRUFF       CLOUDY    11   0  59 SW8       30.22F WCI   0
RHINELANDER    MOCLDY     9  -3  58 SW10      30.25F WCI  -5
EAGLE RIVER    CLOUDY    10  -4  54 SW9       30.23S WCI  -3
LAND O LAKES   CLOUDY    11  -2  56 SW9       30.22F WCI  -2
PHILLIPS       MOCLDY    10   0  63 SW7       30.24F WCI  -1
TOMAHAWK       CLOUDY     9  -2  63 CALM      30.27F
MEDFORD        FLURRIES  10   1  65 S9        30.27F WCI  -3
MERRILL        MOCLDY     9  -1  64 SW7       30.29F WCI  -2
$$

WIZ029-030-035-036-043>047-010900-
CENTRAL WISCONSIN

CITY           SKY/WX    TMP DP  RH WIND       PRES   REMARKS
WAUSAU         PTCLDY    10  -1  61 S10       30.30F WCI  -4
MOSINEE        CLEAR     10   1  67 S8        30.32F WCI  -1
MARSHFIELD     CLOUDY    11   0  61 SW10      30.31F WCI  -3
STEVENS POINT  CLOUDY     9  -1  62 S7        30.34F WCI  -2
WAUPACA        CLEAR     13   1  60 S3        30.38F
WAUTOMA        CLOUDY    12   3  67 CALM      30.39F
WISC RAPIDS    CLOUDY    10  -2  58 S6        30.36F WCI   0
CAMP DOUGLAS   CLEAR     10   3  75 VRB2      30.37F
$$

WIZ011>013-019>022-031-037>040-048>050-010900-
NORTHEAST WISCONSIN

CITY           SKY/WX    TMP DP  RH WIND       PRES   REMARKS
ANTIGO         PTCLDY     7  -2  68 SW9       30.27F WCI  -7
SHAWANO        CLOUDY    16   2  55 SW6       30.37F WCI   7
OCONTO         CLOUDY    15   4  60 SW8       30.38F WCI   4
STURGEON BAY   CLOUDY    16   3  57 SW9       30.39F WCI   4
GREEN BAY      CLOUDY    15   5  64 SW7       30.39F WCI   5
MANITOWOC      FLURRIES  15   9  76 SW7       30.41F WCI   5
APPLETON       MOCLDY    14   5  67 SW9       30.38F WCI   2
CLINTONVILLE   CLOUDY    14   1  57 SW8       30.37F WCI   3
OSHKOSH        CLOUDY    13   6  74 SW6       30.39F WCI   4
$$

WIZ032>034-041-042-053>061-010900-
SOUTHWEST WISCONSIN

CITY           SKY/WX    TMP DP  RH WIND       PRES   REMARKS
LA CROSSE      CLOUDY    13   6  74 S8        30.38F WCI   2
SPARTA         FLURRIES  11   4  72 S3        30.38F
VIROQUA        MOCLDY     7   4  86 S5        30.33F WCI  -1
BOSCOBEL       CLOUDY     5   0  79 CALM      30.42F
PRAIRIE DU CHI LGT SNOW   6   1  79 CALM      30.42S
PLATTEVILLE    CLOUDY    12   9  89 S3        30.38S
$$

WIZ056-057-062-063-064-067-068-010900-
SOUTH CENTRAL WISCONSIN

CITY           SKY/WX    TMP DP  RH WIND       PRES   REMARKS
REEDSBURG      FLURRIES   9   5  84 CALM      30.38F
BARABOO/DELLS  LGT SNOW   9   5  82 SW3       30.37F
LONE ROCK      LGT SNOW  10   5  80 CALM      30.41F
MINERAL POINT  FLURRIES  14  12  92 S3        30.36F
MADISON        CLOUDY    15  10  80 SW3       30.39F
MIDDLETON      CLOUDY    16  11  82 SW6       30.39F WCI   7
WATERTOWN      FLURRIES  12  11  94 CALM      30.39F
MONROE         CLOUDY    12  12 100 S6        30.37F WCI   3
JANESVILLE     FLURRIES  14  10  85 CALM      30.40F
$$

WIZ051-052-058>065-066-070>072-010900-
SOUTHEAST WISCONSIN

CITY           SKY/WX    TMP DP  RH WIND       PRES   REMARKS
MILWAUKEE      PTCLDY    15   9  76 SW3       30.42F
WAUKESHA       FAIR      12   9  85 SW3       30.40F
MILWAUKEE/TIMM FLURRIES  14  10  85 CALM      30.42F
RACINE         PTCLDY    13   9  84 CALM      30.43F
BURLINGTON     CLEAR      6   3  89 CALM      30.41F
KENOSHA        PTCLDY    10   7  87 CALM      30.42F FOG
FOND DU LAC    MOCLDY    11   6  81 CALM      30.40S
SHEBOYGAN      CLEAR     11   6  81 SW6       30.40F WCI   1
WEST BEND      FLURRIES  12   9  85 CALM      30.39F
JUNEAU         FLURRIES  12  10  89 S5        30.40F WCI   4
$$

LSZ147-162-010900-
LAKE SUPERIOR

STATION/POSITION TIME  TEMP    WIND        PRES    WAVE
                       AIR SEA DIR/SP/G            HT/PER
                 (UTC) (F)     (DEG/KT/KT) (MB)    (FT/S)
DEVILS ISLAND    0800   15     220/ 11/ 14 1025.1F
PORT WING        0740   15     210/  8/ 13 1024.0F
SAXON HARBOR     0700   15     190/  8/ 14 1024.7F
$$

LMZ867-665-643>646-010900-
LAKE MICHIGAN

STATION/POSITION TIME  TEMP    WIND        PRES    WAVE
                       AIR SEA DIR/SP/G            HT/PER
                 (UTC) (F)     (DEG/KT/KT) (MB)    (FT/S)
NORTHPORT PIER   0703   16     170/  4/  9 1028.8F
SISTER BAY       0543   16     210/ 11/ 13   N/A
KEWAUNEE LAKESHO 0700   17     230/  6/ 10 1028.7F
SHEBOYGAN LAKESH 0800   16     240/  8/  9 1031.2F
PORT WASHINGTON  0740   17     250/  5/  6 1030.8F
MILWAUKEE LAKESH 0700   18     220/  9/ 11   N/A
KENOSHA   LAKESH 0800   18     240/  2/  4 1030.1F
$$

TC  - TEMPERATURE IN CELSIUS
VSB - VISIBILITY IN STATUTE MILES
WCI - WIND CHILL INDEX
HX  - HEAT INDEX



USA.gov is the U.S. government's official web portal to all federal, state and local government web resources and services.